Location: ?????
(37.7324°N, 23.9257°E)
Time: 22:29:10
(UTC+00:00)

Cosmos 405 Rocket - Pass Details

Date: 29 November 2020
Orbit: 489 x 553 km, 81.3° (Epoch: 18 January)

Event Time Altitude Azimuth Distance (km) Brightness Sun altitude
Rises 04:00:49 0° 188° (S) 2,548 6.3 -15.2°
Reaches altitude 10° 04:02:54 10° 188° (S) 1,674 5.4 -14.8°
Maximum altitude 04:06:34 88° 269° (W) 499 2.5 -14.1°
Drops below altitude 10° 04:10:19 10° 8° (N) 1,706 5.2 -13.4°
Sets 04:12:27 0° 9° (N) 2,602 6.2 -13.0°
